Powrót do katalogu

CHINASAT 22

AktywnyŁącznośćGEO
NORAD 26058·PAYLOAD·🇨🇳 China

Wystrzelony Jan 25, 2000 z Xichang Satellite Launch Center

Loading…

TLE

ŚwieżeSource: Space-Track

Epoka: Sep 14, 2026, 13:28 UTC

1 26058U 00003A   26257.56154476 -.00000079  00000-0  00000-0 0  9991
2 26058  12.6092  31.7197 0004149 277.5212 114.0028  0.97320877 46857

Śledź CHINASAT 22 w czasie rzeczywistym z AllMySat

Download on the App Store